NCAA Mid Atlantic Regionals

back to results

Nov. 10, 2007

NCAA Mid Atlantic Regionals
Lehigh University
Provided by NCAASPORTS


1 Georgetown 42 2 3 11 12 14 15 22 30:33 25
2 Villanova 70 1 8 13 19 29 31 52 30:40 1:06
3 Princeton 74 4 9 10 24 27 33 35 30:43 42
4 American 176 5 7 18 62 84 97 145 31:08 1:47
5 Navy 184 16 17 37 54 60 73 104 31:13 1:03
6 La Salle 185 20 21 40 47 57 59 72 31:16 53
7 Duquesne 204 6 36 45 49 68 82 118 31:17 1:25
8 Penn State 232 26 43 44 50 69 76 86 31:26 46
9 Maryland 235 23 30 51 64 67 93 102 31:28 52
10 Penn 257 28 34 39 75 81 85 31:35 1:00
11 Bucknell 339 25 65 66 87 96 131 165 31:52 1:25
12* Lehigh 368 55 61 78 80 94 108 129 32:01 46
12* St. Joseph's (Pa ) 368 32 70 77 90 99 144 151 32:00 1:14
14 Rider 413 38 58 74 121 122 148 152 32:15 1:47
15 Delaware 435 46 79 101 103 106 123 126 32:15 1:12
16 Pittsburgh 460 48 71 89 120 132 141 155 32:23 1:54
17 Marshall 483 53 83 109 111 127 133 137 32:31 1:43
18 Rutgers 512 88 92 100 115 117 119 139 32:37 48
19 Umbc 532 41 91 110 130 160 32:52 3:06
20 Loyola (Md ) 547 42 98 125 128 154 156 175 32:52 2:41
21 George Washington 593 95 107 114 124 153 33:03 1:37
22 Seton Hall 655 63 113 149 164 166 178 179 33:37 3:00
23 Monmouth 668 112 135 136 138 147 162 170 33:23 52
24 Maryland-Eastern Shor 675 56 116 163 167 173 180 185 33:59 3:56
25 Temple 678 105 134 143 146 150 168 174 33:28 1:22
26 Lafayette 802 140 158 159 169 176 183 34:39 2:20
27 Longwood 803 142 157 161 171 172 177 181 34:42 1:53
28 St. Peter's 927 182 184 186 187 188 189 37:43 2:17

INCOMPLETE TEAMS:
Mount St. Mary's
Robert Morris
St. Francis (Pa )
Coppin State

Individuals

1. Georgetown
1087 2 Matt Debole, Sr 30:18 4:53
1086 3 Andrew Bumbalough, So 30:24 4:54
1094 11 Justin Scheid, Jr 30:39 4:57
1091 12 Levi Miller, So 30:40 4:57
1089 14 Michael Krisch, Jr 30:42 4:57
1095 15 Ayalew Taye, Fr 30:44 4:57
1093 22 Sandy Roberts, So 30:55 4:59
Time = 2:32:42 Places = 42

2. Villanova
1309 1 Robert Curtis, Sr 30:08 4:52
1311 8 Ben Guest, Fr 30:30 4:55
1312 13 Michael Kerrigan, Sr 30:41 4:57
1314 19 Bobby Papazian, So 30:50 4:58
1310 29 Geoffrey Doody, Sr 31:13 5:02
1313 31 Brian Long, Fr 31:15 5:02
1308 52 Keith Capecci, Fr 31:31 5:05
Time = 2:33:19 Places = 70

3. Princeton
1227 4 Dave Nightingale, Sr 30:24 4:54
1226 9 Michael Maag, Jr 30:30 4:55
1232 10 Ben Sitler, So 30:33 4:56
1229 24 James O'Toole, Sr 31:00 5:00
1233 27 Frank Tinney, Sr 31:06 5:01
1231 33 Ted Price, So 31:17 5:03
1230 35 Justin Pines, Sr 31:17 5:03
Time = 2:33:31 Places = 74

4. American
1039 5 Brendan Fennell, Sr 30:25 4:54
1041 7 Steve Hallinan, Sr 30:29 4:55
1042 18 Carlos Jamieson, Jr 30:49 4:58
1045 62 Brian McCabe, Sr 31:48 5:08
1037 84 Jason Baker, Fr 32:11 5:11
1040 97 Kyle Gaffney, Fr 32:29 5:14
1043 145 Brandon Laks, Jr 33:43 5:26
Time = 2:35:40 Places = 176

5. Navy
1193 16 John Kress, Sr 30:44 4:57
1195 17 John Olsen, Sr 30:45 4:58
1196 37 William Prom, Jr 31:19 5:03
1188 54 Andrew Grant, Jr 31:32 5:05
1187 60 Lucas Burke, Sr 31:46 5:07
1190 73 Andrew Hanko, Fr 32:00 5:10
1191 104 Chris Horel, So 32:35 5:15
Time = 2:36:04 Places = 184

6. La Salle
1099 20 Korey Edwards, Jr 30:52 4:59
1098 21 Edward Baynes, Sr 30:53 4:59
1097 40 David Alfano, Sr 31:22 5:03
1100 47 Joe Fedorowicz, Sr 31:26 5:04
1103 57 Trevon Rainford, So 31:45 5:07
1106 59 Ellis Wilson, Jr 31:45 5:07
1105 72 Sean Ward, Fr 31:57 5:09
Time = 2:36:16 Places = 185

7. Duquesne
1075 6 Tom Slosky, Sr 30:25 4:54
1071 36 Josh Eddy, Jr 31:19 5:03
1073 45 Eric Robertson, Sr 31:25 5:04
1070 49 Derek Dutille, Jr 31:28 5:04
1067 68 Erik Anderson, Fr 31:50 5:08
1074 82 Shane Sarver, Jr 32:10 5:11
1076 118 Scott Van Kooten, Fr 33:01 5:19
Time = 2:36:24 Places = 204

8. Penn State
1212 26 Tyler McCandless, Jr 31:04 5:01
1213 43 Dennis O'Connor, Jr 31:24 5:04
1216 44 Lucas Zarzeczny, Fr 31:24 5:04
1208 50 Brian Fuller, Jr 31:30 5:05
1214 69 Dennis Pollow, Jr 31:50 5:08
1211 76 John Mahoney, Jr 32:04 5:10
1215 86 Michael Syrnick, Sr 32:12 5:12
Time = 2:37:10 Places = 232

9. Maryland
1157 23 Greg Kelsey, So 30:58 5:00
1155 30 Ben Diestel, So 31:14 5:02
1153 51 Richie Booth, Jr 31:30 5:05
1158 64 Joe Simpson, So 31:49 5:08
1156 67 Kevin Gahr, So 31:49 5:08
1154 93 Mike Cator, So 32:24 5:14
1152 102 Drew Abernathy, So 32:33 5:15
Time = 2:37:18 Places = 235

10. Penn
1200 28 Brian Goldberg, Sr 31:09 5:01
1206 34 Brian Trembley, Jr 31:17 5:03
1198 39 Larry Contrella, Sr 31:21 5:03
1201 75 Luke Grau, Fr 32:02 5:10
1205 81 Anguel Tolev, Fr 32:08 5:11
1199 85 Brian Cullin, So 32:12 5:11
Time = 2:37:55 Places = 257

11. Bucknell
1046 25 Wallace Campbell, Sr 31:03 5:00
1054 65 Clinton Orloski, Jr 31:49 5:08
1047 66 Andrew Corral, Sr 31:49 5:08
1052 87 Andrew Huebner, So 32:13 5:12
1048 96 Stephen Dorsey, Fr 32:27 5:14
1050 131 Michael Gibney, Sr 33:18 5:22
1051 165 Will Holleran, Sr 34:46 5:36
Time = 2:39:18 Places = 339

12*. Lehigh
1122 55 Jonathan Wetzel, Jr 31:39 5:06
1118 61 Carl Leunig, Jr 31:47 5:08
1117 78 Ben Lampi, Jr 32:05 5:10
1119 80 Dan McClimon, Fr 32:07 5:11
1120 94 Steve Sample, Fr 32:25 5:14
1116 108 Dan Dewitt, Jr 32:45 5:17
1115 129 Kenneth Burgess, So 33:16 5:22
Time = 2:40:03 Places = 368

12*. St. Joseph's (Pa )
1277 32 Kyle Murray, Jr 31:16 5:03
1280 70 Jonathan Sclafani, So 31:51 5:08
1275 77 Brian Guterl, Fr 32:05 5:10
1276 90 James Jennings, So 32:19 5:13
1278 99 Will Rowland, Sr 32:29 5:14
1273 144 Ryan Fenimore, Fr 33:39 5:26
1281 151 George Wittman, So 33:59 5:29
Time = 2:39:57 Places = 368

14. Rider
1242 38 John Smith, Sr 31:20 5:03
1238 58 Christian Gonzalez, Fr 31:45 5:07
1236 74 Matt Dahl, Jr 32:01 5:10
1241 121 Chris Reale, Fr 33:03 5:20
1244 122 Jeff Stead, Sr 33:06 5:20
1243 148 Mike Soroko, Fr 33:47 5:27
1235 152 Phil Capaldi, So 33:59 5:29
Time = 2:41:14 Places = 413

15. Delaware
1064 46 Kyle Schmid, Sr 31:26 5:04
1063 79 Nick Pyle, So 32:07 5:11
1061 101 Kevin Kemmerle, Jr 32:32 5:15
1060 103 Brad Dodson, Sr 32:34 5:15
1065 106 Mike Ward, Sr 32:37 5:16
1059 123 Jimmy Daly, Sr 33:06 5:20
1057 126 Chris Bourke, So 33:13 5:21
Time = 2:41:14 Places = 435

16. Pittsburgh
1221 48 Curtis Larimer, Sr 31:27 5:04
1218 71 Joshua Christopher, Fr 31:52 5:08
1224 89 Sam Weiser, So 32:15 5:12
1220 120 Lane King, So 33:03 5:20
1222 132 Teddy Miller, Fr 33:20 5:23
1219 141 Kyle Kaminski, So 33:34 5:25
1223 155 Jack Morrow, Fr 34:12 5:31
Time = 2:41:55 Places = 460

17. Marshall
1142 53 Travis Epling, Sr 31:31 5:05
1148 83 Matt Null, Jr 32:11 5:11
1149 109 Andrew Ramell, Sr 32:47 5:17
1147 111 Jon Nelson, Sr 32:53 5:18
1150 127 Straten Schemel, Jr 33:14 5:22
1143 133 Josh Feather, Fr 33:21 5:23
1144 137 Eric Frohnapfel, Fr 33:25 5:23
Time = 2:42:34 Places = 483

18. Rutgers
1254 88 Alex Palmentieri, Sr 32:13 5:12
1250 92 Kevin Cronin, Fr 32:20 5:13
1252 100 Simon Gordonov, So 32:29 5:14
1257 115 Mike Snihur, Sr 33:00 5:19
1251 117 Mike Crum, So 33:01 5:19
1256 119 Brandon Smith, Jr 33:02 5:20
1253 139 Nick Miehe, Fr 33:31 5:24
Time = 2:43:02 Places = 512

19. Umbc
1302 41 Anthony Kelhower, Jr 31:23 5:04
1306 91 Paul Zwama, Fr 32:19 5:13
1300 110 Chris Bowie, Fr 32:52 5:18
1303 130 Andrew Madison, So 33:16 5:22
1305 160 Chris Snyder, Fr 34:29 5:34
Time = 2:44:17 Places = 532

20. Loyola (Md )
1135 42 Chris Heibel, Jr 31:24 5:04
1136 98 Dan McDevitt, So 32:29 5:14
1134 125 Keith Forlenza, Jr 33:11 5:21
1137 128 Terry Moran, So 33:15 5:22
1138 154 Brian Parker, Sr 34:05 5:30
1141 156 Timm Woods, Jr 34:12 5:31
1140 175 Brian Scullin, Jr 35:47 5:46
Time = 2:44:20 Places = 547

21. George Washington
1083 95 Collin Stevenson, Jr 32:26 5:14
1081 107 Keith Moody, Jr 32:42 5:16
1077 114 Joe Altenau, Sr 32:59 5:19
1080 124 Robbie Lockhart, So 33:07 5:20
1082 153 Stephen Rutgers, So 34:03 5:29
Time = 2:45:15 Places = 593

22. Seton Hall
1261 63 Pawel Kornaszewski, Sr 31:49 5:08
1260 113 Terrance Gallogly, Jr 32:54 5:18
1259 149 Thomas Corona, Fr 33:51 5:27
1265 164 Patrick Nickerson, Jr 34:43 5:36
1266 166 Rob Novak, Jr 34:48 5:37
1263 178 Justin McKinzie, Jr 35:59 5:48
1262 179 Patrick McGovern, So 36:09 5:50
Time = 2:48:03 Places = 655

23. Monmouth
1172 112 Peter Forgach, So 32:53 5:18
1169 135 Jeff Cody, Jr 33:23 5:23
1168 136 Matthew Caporaso, Sr 33:24 5:23
1174 138 Randall Hadzor, Sr 33:28 5:24
1175 147 Ben Hutterer, Fr 33:45 5:27
1170 162 Dustin Coleman, Sr 34:38 5:35
1179 170 Shawn Platz, Fr 35:24 5:42
Time = 2:46:51 Places = 668

24. Maryland-Eastern Shor
1165 56 Peter Sang, Fr 31:43 5:07
1161 116 Amon Kiprotich, Fr 33:00 5:19
1162 163 Solomon Kirongo, Jr 34:40 5:35
1160 167 Clayton James, Sr 34:52 5:37
1166 173 Nathaniel Taylor, Fr 35:39 5:45
1163 180 Samuel Mwangi, Jr 36:09 5:50
1164 185 Jerome Pyuzza, So 37:57 6:07
Time = 2:49:52 Places = 675

25. Temple
1297 105 Adin Mickle, Jr 32:37 5:16
1291 134 Eric Conklin, Fr 33:23 5:23
1293 143 Charles Goold, Fr 33:37 5:25
1296 146 Mike May, Fr 33:45 5:27
1294 150 Clarke Hunt, Fr 33:58 5:29
1290 168 Caleb Betton, Fr 34:54 5:38
1292 174 Ryan Feehery, Fr 35:39 5:45
Time = 2:47:18 Places = 678

26. Lafayette
1112 140 Ryan Stasiowski, Fr 33:33 5:25
1110 158 Colin McCullough, Fr 34:25 5:33
1109 159 Kevin Cunningham, Sr 34:26 5:33
1107 169 Sean Casey, So 35:01 5:39
1111 176 Peter Reynolds, Sr 35:52 5:47
1108 183 Stephen Comanto, Fr 36:35 5:54
Time = 2:53:14 Places = 802

27. Longwood
1128 142 Evan Kearney, Jr 33:36 5:25
1129 157 Dj Palmer, Sr 34:19 5:32
1131 161 Ross Roberts, So 34:37 5:35
1130 171 David Reed, Fr 35:28 5:43
1124 172 Daniel Cummings, Fr 35:28 5:43
1127 177 Philip Kada, Fr 35:54 5:47
1123 181 Tyler Copely, Fr 36:22 5:52
Time = 2:53:26 Places = 803

28. St. Peter's
1286 182 Albert Mendes, Fr 36:27 5:53
1287 184 Michael Sacca, Fr 36:58 5:58
1284 186 Michael Bravo, Fr 38:02 6:08
1283 187 Brian Bernardino, Sr 38:23 6:11
1288 188 Matt Vandeursen, Jr 38:43 6:15
1285 189 Thomas Cleary, Fr 41:45 6:44
Time = 3:08:31 Places = 927
Top

TEAM MILE 1 FINAL
ID# PLACE SCORE FINISHER TIME TIME PACE TEAM

1309 1 1 Robert Curtis, Sr 4:57 30:08 4:52 Villanova
1087 2 2 Matt Debole, Sr 4:58 30:18 4:53 Georgetown
1086 3 3 Andrew Bumbalough, So 4:58 30:24 4:54 Georgetown
1227 4 4 Dave Nightingale, Sr 4:58 30:24 4:54 Princeton
1039 5 5 Brendan Fennell, Sr 4:56 30:25 4:54 American
1075 6 6 Tom Slosky, Sr 4:59 30:25 4:54 Duquesne
1041 7 7 Steve Hallinan, Sr :00 30:29 4:55 American
1311 8 8 Ben Guest, Fr :00 30:30 4:55 Villanova
1226 9 9 Michael Maag, Jr 4:57 30:30 4:55 Princeton
1232 10 10 Ben Sitler, So 4:57 30:33 4:56 Princeton
1094 11 11 Justin Scheid, Jr 4:57 30:39 4:57 Georgetown
1091 12 12 Levi Miller, So 4:58 30:40 4:57 Georgetown
1312 13 13 Michael Kerrigan, Sr 4:58 30:41 4:57 Villanova
1089 14 14 Michael Krisch, Jr 5:01 30:42 4:57 Georgetown
1095 15 15 Ayalew Taye, Fr 4:59 30:44 4:57 Georgetown
1193 16 16 John Kress, Sr 4:57 30:44 4:57 Navy
1195 17 17 John Olsen, Sr 4:57 30:45 4:58 Navy
1042 18 18 Carlos Jamieson, Jr :00 30:49 4:58 American
1314 19 19 Bobby Papazian, So :00 30:50 4:58 Villanova
1099 20 20 Korey Edwards, Jr 5:00 30:52 4:59 La Salle
1098 21 21 Edward Baynes, Sr 4:59 30:53 4:59 La Salle
1093 22 22 Sandy Roberts, So 5:01 30:55 4:59 Georgetown
________________________________________
Pace: 5:00 | 6:00 | Top
________________________________________
1157 23 23 Greg Kelsey, So :00 30:58 5:00 Maryland
1229 24 24 James O'Toole, Sr 4:59 31:00 5:00 Princeton
1046 25 25 Wallace Campbell, Sr 4:57 31:03 5:00 Bucknell
1212 26 26 Tyler McCandless, Jr 4:57 31:04 5:01 Penn State
1233 27 27 Frank Tinney, Sr 4:58 31:06 5:01 Princeton
1200 28 28 Brian Goldberg, Sr 4:57 31:09 5:01 Penn
1310 29 29 Geoffrey Doody, Sr 4:58 31:13 5:02 Villanova
1155 30 30 Ben Diestel, So 4:57 31:14 5:02 Maryland
1313 31 31 Brian Long, Fr :00 31:15 5:02 Villanova
1277 32 32 Kyle Murray, Jr :00 31:16 5:03 St. Joseph's (Pa )
1231 33 33 Ted Price, So 4:59 31:17 5:03 Princeton
1206 34 34 Brian Trembley, Jr 4:57 31:17 5:03 Penn
1230 35 35 Justin Pines, Sr :00 31:17 5:03 Princeton
1071 36 36 Josh Eddy, Jr 4:56 31:19 5:03 Duquesne
1196 37 37 William Prom, Jr 4:57 31:19 5:03 Navy
1242 38 38 John Smith, Sr 4:57 31:20 5:03 Rider
1198 39 39 Larry Contrella, Sr 4:56 31:21 5:03 Penn
1097 40 40 David Alfano, Sr 5:00 31:22 5:03 La Salle
1302 41 41 Anthony Kelhower, Jr 5:04 31:23 5:04 Umbc
1135 42 42 Chris Heibel, Jr 4:56 31:24 5:04 Loyola (Md )
1213 43 43 Dennis O'Connor, Jr 4:57 31:24 5:04 Penn State
1216 44 44 Lucas Zarzeczny, Fr 4:56 31:24 5:04 Penn State
1073 45 45 Eric Robertson, Sr 5:00 31:25 5:04 Duquesne
1064 46 46 Kyle Schmid, Sr 5:00 31:26 5:04 Delaware
1100 47 47 Joe Fedorowicz, Sr 4:59 31:26 5:04 La Salle
1221 48 48 Curtis Larimer, Sr 5:02 31:27 5:04 Pittsburgh
1070 49 49 Derek Dutille, Jr 4:59 31:28 5:04 Duquesne
1208 50 50 Brian Fuller, Jr 4:57 31:30 5:05 Penn State
1153 51 51 Richie Booth, Jr 4:56 31:30 5:05 Maryland
1308 52 52 Keith Capecci, Fr 4:59 31:31 5:05 Villanova
1142 53 53 Travis Epling, Sr 4:56 31:31 5:05 Marshall
1188 54 54 Andrew Grant, Jr 4:59 31:32 5:05 Navy
1122 55 55 Jonathan Wetzel, Jr 4:57 31:39 5:06 Lehigh
1165 56 56 Peter Sang, Fr 4:57 31:43 5:07 Maryland-Eastern Shor
1103 57 57 Trevon Rainford, So 5:00 31:45 5:07 La Salle
1238 58 58 Christian Gonzalez, Fr :00 31:45 5:07 Rider
1106 59 59 Ellis Wilson, Jr 5:01 31:45 5:07 La Salle
1187 60 60 Lucas Burke, Sr 4:57 31:46 5:07 Navy
1118 61 61 Carl Leunig, Jr 4:58 31:47 5:08 Lehigh
1045 62 62 Brian McCabe, Sr 4:57 31:48 5:08 American
1261 63 63 Pawel Kornaszewski, Sr 5:01 31:49 5:08 Seton Hall
1158 64 64 Joe Simpson, So :00 31:49 5:08 Maryland
1054 65 65 Clinton Orloski, Jr :00 31:49 5:08 Bucknell
1047 66 66 Andrew Corral, Sr :00 31:49 5:08 Bucknell
1156 67 67 Kevin Gahr, So :00 31:49 5:08 Maryland
1067 68 68 Erik Anderson, Fr 5:02 31:50 5:08 Duquesne
1214 69 69 Dennis Pollow, Jr 4:57 31:50 5:08 Penn State
1280 70 70 Jonathan Sclafani, So 5:02 31:51 5:08 St. Joseph's (Pa )
1218 71 71 Joshua Christopher, Fr 5:00 31:52 5:08 Pittsburgh
1105 72 72 Sean Ward, Fr 5:01 31:57 5:09 La Salle
1190 73 73 Andrew Hanko, Fr 4:58 32:00 5:10 Navy
1236 74 74 Matt Dahl, Jr 4:58 32:01 5:10 Rider
1201 75 75 Luke Grau, Fr 4:57 32:02 5:10 Penn
1211 76 76 John Mahoney, Jr 4:57 32:04 5:10 Penn State
1275 77 77 Brian Guterl, Fr 5:00 32:05 5:10 St. Joseph's (Pa )
1117 78 78 Ben Lampi, Jr 4:58 32:05 5:10 Lehigh
1063 79 79 Nick Pyle, So 4:59 32:07 5:11 Delaware
1119 80 80 Dan McClimon, Fr 4:58 32:07 5:11 Lehigh
1205 81 81 Anguel Tolev, Fr 4:58 32:08 5:11 Penn
1074 82 82 Shane Sarver, Jr 5:02 32:10 5:11 Duquesne
1148 83 83 Matt Null, Jr 5:02 32:11 5:11 Marshall
1037 84 84 Jason Baker, Fr 5:04 32:11 5:11 American
1199 85 85 Brian Cullin, So 4:57 32:12 5:11 Penn
1215 86 86 Michael Syrnick, Sr 5:01 32:12 5:12 Penn State
1052 87 87 Andrew Huebner, So 4:59 32:13 5:12 Bucknell
1254 88 88 Alex Palmentieri, Sr 5:02 32:13 5:12 Rutgers
1248 89 Phillips Thompson, Sr 5:04 32:15 5:12 Robert Morris
1224 90 89 Sam Weiser, So 5:01 32:15 5:12 Pittsburgh
1276 91 90 James Jennings, So 5:02 32:19 5:13 St. Joseph's (Pa )
1306 92 91 Paul Zwama, Fr 5:01 32:19 5:13 Umbc
1250 93 92 Kevin Cronin, Fr 5:00 32:20 5:13 Rutgers
1154 94 93 Mike Cator, So 4:59 32:24 5:14 Maryland
1120 95 94 Steve Sample, Fr 4:59 32:25 5:14 Lehigh
1083 96 95 Collin Stevenson, Jr 5:00 32:26 5:14 George Washington
1056 97 Anthony Littlejohn, Sr 4:56 32:27 5:14 Coppin State
1048 98 96 Stephen Dorsey, Fr :00 32:27 5:14 Bucknell
1040 99 97 Kyle Gaffney, Fr 5:00 32:29 5:14 American
1136 100 98 Dan McDevitt, So 5:02 32:29 5:14 Loyola (Md )
1278 101 99 Will Rowland, Sr 5:02 32:29 5:14 St. Joseph's (Pa )
1252 102 100 Simon Gordonov, So 5:03 32:29 5:14 Rutgers
1061 103 101 Kevin Kemmerle, Jr 5:02 32:32 5:15 Delaware
1152 104 102 Drew Abernathy, So 4:57 32:33 5:15 Maryland
1060 105 103 Brad Dodson, Sr 5:03 32:34 5:15 Delaware
1191 106 104 Chris Horel, So 4:58 32:35 5:15 Navy
1297 107 105 Adin Mickle, Jr 5:10 32:37 5:16 Temple
1065 108 106 Mike Ward, Sr 5:04 32:37 5:16 Delaware
1081 109 107 Keith Moody, Jr 5:00 32:42 5:16 George Washington
1116 110 108 Dan Dewitt, Jr 4:58 32:45 5:17 Lehigh
1149 111 109 Andrew Ramell, Sr 4:59 32:47 5:17 Marshall
1300 112 110 Chris Bowie, Fr 5:06 32:52 5:18 Umbc
1147 113 111 Jon Nelson, Sr :00 32:53 5:18 Marshall
1172 114 112 Peter Forgach, So 5:00 32:53 5:18 Monmouth
1260 115 113 Terrance Gallogly, Jr 5:04 32:54 5:18 Seton Hall
1272 116 Timothy Wertner, Fr 5:08 32:54 5:18 St. Francis (Pa )
1077 117 114 Joe Altenau, Sr 5:01 32:59 5:19 George Washington
1257 118 115 Mike Snihur, Sr 5:04 33:00 5:19 Rutgers
1161 119 116 Amon Kiprotich, Fr 5:00 33:00 5:19 Maryland-Eastern Shor
1251 120 117 Mike Crum, So 5:12 33:01 5:19 Rutgers
1076 121 118 Scott Van Kooten, Fr 5:01 33:01 5:19 Duquesne
1256 122 119 Brandon Smith, Jr 5:12 33:02 5:20 Rutgers
1220 123 120 Lane King, So 5:01 33:03 5:20 Pittsburgh
1241 124 121 Chris Reale, Fr 5:02 33:03 5:20 Rider
1244 125 122 Jeff Stead, Sr 5:00 33:06 5:20 Rider
1059 126 123 Jimmy Daly, Sr 5:04 33:06 5:20 Delaware
1080 127 124 Robbie Lockhart, So 5:00 33:07 5:20 George Washington
1134 128 125 Keith Forlenza, Jr 5:06 33:11 5:21 Loyola (Md )
1185 129 Kyle Ryan, So 5:04 33:11 5:21 Mount St. Mary's
1057 130 126 Chris Bourke, So 5:01 33:13 5:21 Delaware
1150 131 127 Straten Schemel, Jr 5:04 33:14 5:22 Marshall
1137 132 128 Terry Moran, So 5:04 33:15 5:22 Loyola (Md )
1115 133 129 Kenneth Burgess, So 4:58 33:16 5:22 Lehigh
1303 134 130 Andrew Madison, So 5:03 33:16 5:22 Umbc
1050 135 131 Michael Gibney, Sr 5:00 33:18 5:22 Bucknell
1222 136 132 Teddy Miller, Fr 5:02 33:20 5:23 Pittsburgh
1143 137 133 Josh Feather, Fr 5:02 33:21 5:23 Marshall
1291 138 134 Eric Conklin, Fr 5:06 33:23 5:23 Temple
1169 139 135 Jeff Cody, Jr 5:04 33:23 5:23 Monmouth
1168 140 136 Matthew Caporaso, Sr 5:03 33:24 5:23 Monmouth
1144 141 137 Eric Frohnapfel, Fr 4:57 33:25 5:23 Marshall
1174 142 138 Randall Hadzor, Sr 5:09 33:28 5:24 Monmouth
1186 143 Morgan Sowell, Jr 5:08 33:28 5:24 Mount St. Mary's
1253 144 139 Nick Miehe, Fr 5:03 33:31 5:24 Rutgers
1112 145 140 Ryan Stasiowski, Fr 5:11 33:33 5:25 Lafayette
1219 146 141 Kyle Kaminski, So 5:03 33:34 5:25 Pittsburgh
1128 147 142 Evan Kearney, Jr 5:17 33:36 5:25 Longwood
1293 148 143 Charles Goold, Fr 5:06 33:37 5:25 Temple
1273 149 144 Ryan Fenimore, Fr 5:02 33:39 5:26 St. Joseph's (Pa )
1043 150 145 Brandon Laks, Jr 5:01 33:43 5:26 American
1296 151 146 Mike May, Fr 5:05 33:45 5:27 Temple
1175 152 147 Ben Hutterer, Fr 5:09 33:45 5:27 Monmouth
1243 153 148 Mike Soroko, Fr 5:02 33:47 5:27 Rider
1269 154 Chris Behre, So 5:08 33:47 5:27 St. Francis (Pa )
1259 155 149 Thomas Corona, Fr 5:05 33:51 5:27 Seton Hall
1294 156 150 Clarke Hunt, Fr 5:04 33:58 5:29 Temple
1281 157 151 George Wittman, So 5:02 33:59 5:29 St. Joseph's (Pa )
1235 158 152 Phil Capaldi, So 5:07 33:59 5:29 Rider
1270 159 Brent Digiorgio, Fr 5:11 33:59 5:29 St. Francis (Pa )
1082 160 153 Stephen Rutgers, So 5:01 34:03 5:29 George Washington
1138 161 154 Brian Parker, Sr 5:06 34:05 5:30 Loyola (Md )
1223 162 155 Jack Morrow, Fr 5:04 34:12 5:31 Pittsburgh
1249 163 Hendell Travis, Fr 5:10 34:12 5:31 Robert Morris
1141 164 156 Timm Woods, Jr 5:16 34:12 5:31 Loyola (Md )
1245 165 Kevin Forsythe, Sr 5:09 34:13 5:31 Robert Morris
1129 166 157 Dj Palmer, Sr 5:17 34:19 5:32 Longwood
1110 167 158 Colin McCullough, Fr 5:27 34:25 5:33 Lafayette
1109 168 159 Kevin Cunningham, Sr 5:16 34:26 5:33 Lafayette
1305 169 160 Chris Snyder, Fr 5:08 34:29 5:34 Umbc
1271 170 David Holliday, Sr 5:08 34:30 5:34 St. Francis (Pa )
1182 171 Justin Brackett, Jr 5:10 34:31 5:34 Mount St. Mary's
1131 172 161 Ross Roberts, So 5:27 34:37 5:35 Longwood
1170 173 162 Dustin Coleman, Sr 5:09 34:38 5:35 Monmouth
1162 174 163 Solomon Kirongo, Jr 5:05 34:40 5:35 Maryland-Eastern Shor
1265 175 164 Patrick Nickerson, Jr 5:16 34:43 5:36 Seton Hall
1051 176 165 Will Holleran, Sr 5:04 34:46 5:36 Bucknell
1266 177 166 Rob Novak, Jr 5:16 34:48 5:37 Seton Hall
1183 178 William Mitchell, So 5:14 34:49 5:37 Mount St. Mary's
1160 179 167 Clayton James, Sr 5:08 34:52 5:37 Maryland-Eastern Shor
1290 180 168 Caleb Betton, Fr 5:15 34:54 5:38 Temple
1107 181 169 Sean Casey, So 5:19 35:01 5:39 Lafayette
1179 182 170 Shawn Platz, Fr 5:15 35:24 5:42 Monmouth
1130 183 171 David Reed, Fr 5:23 35:28 5:43 Longwood
1124 184 172 Daniel Cummings, Fr 5:33 35:28 5:43 Longwood
1166 185 173 Nathaniel Taylor, Fr 5:26 35:39 5:45 Maryland-Eastern Shor
1292 186 174 Ryan Feehery, Fr 5:10 35:39 5:45 Temple
1140 187 175 Brian Scullin, Jr 5:11 35:47 5:46 Loyola (Md )
1111 188 176 Peter Reynolds, Sr 5:27 35:52 5:47 Lafayette
1127 189 177 Philip Kada, Fr 5:28 35:54 5:47 Longwood
1263 190 178 Justin McKinzie, Jr 5:16 35:59 5:48 Seton Hall
1262 191 179 Patrick McGovern, So 5:33 36:09 5:50 Seton Hall
1163 192 180 Samuel Mwangi, Jr 5:19 36:09 5:50 Maryland-Eastern Shor
1123 193 181 Tyler Copely, Fr 5:38 36:22 5:52 Longwood
1286 194 182 Albert Mendes, Fr 5:16 36:27 5:53 St. Peter's
1108 195 183 Stephen Comanto, Fr 5:33 36:35 5:54 Lafayette
1287 196 184 Michael Sacca, Fr 5:26 36:58 5:58 St. Peter's
________________________________________
Pace: 5:00 | 6:00 | Top
________________________________________
1164 197 185 Jerome Pyuzza, So 5:35 37:57 6:07 Maryland-Eastern Shor
1284 198 186 Michael Bravo, Fr 5:39 38:02 6:08 St. Peter's
1283 199 187 Brian Bernardino, Sr 5:36 38:23 6:11 St. Peter's
1288 200 188 Matt Vandeursen, Jr 5:39 38:43 6:15 St. Peter's
1285 201 189 Thomas Cleary, Fr 5:47 41:45 6:44 St. Peter's
"*" indicates females
57 finishers among Men 1 & Under
41 finishers among Men 2 - 2
49 finishers among Men 3 - 3
54 finishers among Men 4 & Up
201 male finishers
0 female finishers
201 total finishers




1 Princeton 56 2 5 14 17 18 21 24 20:31 52
2 West Virginia 77 3 6 7 30 31 63 99 20:39 1:20
3 Georgetown 79 1 8 9 27 34 36 50 20:40 1:37
4 Penn State 93 4 13 22 26 28 44 58 20:50 1:01
5 Villanova 115 12 19 23 29 32 40 21:02 47
6 Penn 185 15 25 35 42 68 102 116 21:27 1:31
7 La Salle 248 11 20 67 70 80 88 104 21:41 1:51
8 Maryland 275 16 39 61 73 86 90 21:53 1:46
9 Bucknell 314 43 55 57 75 84 100 101 22:08 45
10 Navy 332 51 60 66 76 79 81 93 22:12 31
11 Duquesne 347 33 47 74 95 98 114 115 22:15 1:27
12 Delaware 375 38 65 85 91 96 133 152 22:21 1:16
13 Pittsburgh 398 37 46 64 125 126 158 163 22:28 1:55
14 Towson 420 56 72 77 94 121 165 173 22:34 1:21
15 Rutgers 452 10 53 69 145 175 22:43 4:15
16 Monmouth 464 41 52 119 123 129 138 150 22:46 1:50
17 St. Joseph's (Pa ) 467 45 87 105 110 120 141 155 22:46 1:33
18 George Washington 470 49 59 78 130 154 161 178 22:49 2:21
19 Lehigh 537 62 107 113 127 128 144 23:02 1:19
20 Loyola (Md ) 556 83 89 111 124 149 160 176 23:09 1:33
21 Maryland-Eastern Shor 558 48 92 135 140 143 187 23:11 2:03
22 Rider 626 97 109 122 136 162 181 182 23:28 1:32
23 St. Francis (Pa ) 659 71 106 137 166 179 23:41 2:45
24 Seton Hall 662 54 117 146 171 174 180 23:44 2:49
25 Lafayette 671 82 132 134 156 167 177 183 23:41 1:58
26 Robert Morris 678 112 118 147 148 153 168 169 23:44 1:03
27 Marshall 691 108 131 142 151 159 170 172 23:47 1:16
28 Longwood 747 103 139 157 164 184 185 186 24:14 2:58

INCOMPLETE TEAMS:
American
Howard
Mount St. Mary's
St. Peter's
Umbc

Individuals

1. Princeton
944 2 Liz Costello, So* 19:58 5:22
949 5 Christy Johnson, So* 20:18 5:27
945 14 Sarah Cummings, Fr* 20:42 5:34
943 17 Megan Brandeland, Jr* 20:49 5:35
952 18 Jolee Vanleuven, Jr* 20:49 5:36
950 21 Caitlin McTague, Sr* 20:57 5:38
947 24 Ashley Higginson, Fr* 21:02 5:39
Time = 1:42:33 Places = 56

2. West Virginia
1027 3 Marie-Louise Asselin, So* 20:00 5:22
1030 6 Grandt Clara, So* 20:20 5:28
1028 7 Keri Bland, So* 20:21 5:28
1029 30 Kaylyn Christopher, Fr* 21:17 5:43
1031 31 Maria Dalzot, So* 21:19 5:44
1036 63 Alison Spiker, Jr* 22:08 5:57
1033 99 Kate Harrison, Fr* 22:52 6:09
Time = 1:43:15 Places = 77

3. Georgetown
808 1 Melissa Grelli, Jr* 19:50 5:20
814 8 Lise Ogrodnick, Jr* 20:25 5:29
812 9 Elizabeth Maloy, Sr* 20:28 5:30
809 27 Maggie Infeld, Jr* 21:10 5:41
807 34 Lauren Gregory, So* 21:26 5:46
817 36 Renee Tomlin, So* 21:29 5:46
813 50 Avril Ogrodnick, Jr* 21:53 5:53
Time = 1:43:18 Places = 79

4. Penn State
929 4 Bridget Franek, So* 20:13 5:26
933 13 Leah Rosenfeld, Fr* 20:39 5:33
934 22 Cheryl Spring, So* 20:58 5:38
926 26 Claire Berryman, Jr* 21:08 5:41
932 28 Claire Percival, Jr* 21:14 5:42
931 44 Meghan Noecker, Jr* 21:48 5:51
930 58 Sonja Hinish, Sr* 22:01 5:55
Time = 1:44:10 Places = 93

5. Villanova
1022 12 Sheila Reid, Fr* 20:37 5:32
1024 19 Alison Smith, Fr* 20:53 5:37
1019 23 Callie Hogan, Fr* 20:59 5:38
1020 29 Amanda Marino, Fr* 21:17 5:43
1026 32 Akilah Vargas, Sr* 21:23 5:45
1018 40 Ellen Dougherty, Jr* 21:38 5:49
Time = 1:45:06 Places = 115

6. Penn
919 15 Stacy Kim, Sr* 20:44 5:34
917 25 Leah Brogan, Jr* 21:04 5:40
918 35 Claire Kim, Sr* 21:29 5:46
922 42 Kinjal Parikh, Jr* 21:46 5:51
921 68 Jamie Liberti, Sr* 22:15 5:59
920 102 Charlotte Lawson, Jr* 22:53 6:09
916 116 Anna Aagenes, So* 23:15 6:15
Time = 1:47:15 Places = 185

7. La Salle
827 11 Rachel Papin, Sr* 20:36 5:32
825 20 Carolyn Lipovsky, Sr* 20:53 5:37
823 67 Adriana Boyle, Sr* 22:12 5:58
824 70 Kristina Kubala, Fr* 22:16 5:59
829 80 Christa Plummer, Sr* 22:27 6:02
828 88 Mary Clare Parrott, Jr* 22:35 6:04
826 104 Elisabeth Mayer, Sr* 22:58 6:10
Time = 1:48:22 Places = 248

8. Maryland
876 16 Meghan Braffet, Sr* 20:47 5:35
877 39 Erin Matyus, So* 21:37 5:49
881 61 Lindsay Ritchings, So* 22:07 5:57
882 73 Angeli Sivaraman, Fr* 22:20 6:00
878 86 Kylynn McKinley, Jr* 22:33 6:04
880 90 Kristin Reed, So* 22:42 6:06
Time = 1:49:23 Places = 275

9. Bucknell
772 43 Erin Cranmer-Hart, Sr* 21:46 5:51
780 55 Christy Totten, Sr* 21:59 5:54
779 57 Gillian Nordquist, Jr* 22:01 5:55
775 75 Alexa Griffiths, Fr* 22:22 6:01
778 84 Sarah Moniz, Fr* 22:30 6:03
776 100 Offeibia Hanson-Hall, Sr* 22:52 6:09
773 101 Nicole Falcaro, Jr* 22:53 6:09
Time = 1:50:36 Places = 314

10. Navy
908 51 Arwyn Becker, Sr* 21:55 5:53
915 60 Erica Ziel, So* 22:04 5:56
910 66 Lexa Gass, So* 22:12 5:58
911 76 Kyleigh Millhouse, Sr* 22:24 6:01
909 79 Maureen Dooley, Jr* 22:26 6:02
913 81 Amy Watson, So* 22:29 6:03
914 93 Kat Wirtz, Jr* 22:45 6:07
Time = 1:51:00 Places = 332

11. Duquesne
795 33 Samantha Howard, Sr* 21:24 5:45
792 47 Emily Beahan, Jr* 21:50 5:52
794 74 Sara Cimino, So* 22:21 6:00
793 95 Carly Brickett, So* 22:48 6:08
791 98 Katelyn Baldys, Fr* 22:51 6:08
796 114 Kate Szymaszek, Jr* 23:13 6:14
797 115 Danielle Werley, Fr* 23:15 6:15
Time = 1:51:12 Places = 347

12. Delaware
781 38 Christina Antonopoulos, Jr* 21:34 5:48
789 65 Cassie White, Fr* 22:09 5:57
785 85 Colleen O'Brien, Sr* 22:31 6:03
782 91 Yianna Antonopoulos, Jr* 22:42 6:06
784 96 Karen Mandrachia, Fr* 22:49 6:08
788 133 Jennifer Watunya, Fr* 23:36 6:21
786 152 Liz Paul, Jr* 24:09 6:30
Time = 1:51:43 Places = 375

13. Pittsburgh
940 37 Amy Ruffolo, Sr* 21:31 5:47
942 46 Anna Yoney, Fr* 21:48 5:51
937 64 Ali Briggs, Sr* 22:09 5:57
935 125 Monica Bhattacharjee, Jr* 23:25 6:18
939 126 June Farley, Fr* 23:26 6:18
936 158 Nikki Bielick, Sr* 24:18 6:32
941 163 Melissa Vignetti, Jr* 24:21 6:33
Time = 1:52:18 Places = 398

14. Towson
1005 56 Britta Nelson, Sr* 22:00 5:55
1007 72 Katie Ogden, Fr* 22:19 6:00
1004 77 Michelle Donadio, So* 22:25 6:01
1001 94 Kathleen Borleis, Sr* 22:47 6:07
1008 121 Janelle Thompson, Sr* 23:20 6:16
1002 165 Brittni Bradley, Fr* 24:25 6:34
1006 173 Devin O'Connell, So* 24:39 6:37
Time = 1:52:49 Places = 420

15. Rutgers
971 10 Cheyenne Ogletree, Jr* 20:35 5:32
970 53 Alison Caruana, Jr* 21:57 5:54
972 69 Asha Singh, Fr* 22:15 5:59
973 145 Karen Wilson, Jr* 23:59 6:27
969 175 Brittnee Bynoe, So* 24:50 6:40
Time = 1:53:33 Places = 452

16. Monmouth
898 41 Cailin Lynam, So* 21:40 5:49
899 52 Meredith Malloy, So* 21:56 5:54
890 119 Christine Altland, Fr* 23:19 6:16
900 123 Tiffany McKenna, Fr* 23:22 6:17
903 129 Courtney Spratford, Fr* 23:30 6:19
902 138 Rachel Ruggiano, So* 23:44 6:23
892 150 Laura Embrey, So* 24:08 6:29
Time = 1:53:47 Places = 464

17. St. Joseph's (Pa )
993 45 Andrea Florida, Jr* 21:48 5:51
989 87 Aimee Chegwidden, Fr* 22:34 6:04
990 105 Annie Cushing, So* 22:58 6:10
997 110 Amy Rhein, Jr* 23:08 6:13
998 120 Juli Stensland, Jr* 23:20 6:16
994 141 Christina Morelli, Fr* 23:47 6:23
992 155 Laura Faller, Fr* 24:13 6:30
Time = 1:53:47 Places = 467

18. George Washington
800 49 Audrey Noonan, Jr* 21:52 5:52
802 59 Mae Polhemus, Sr* 22:03 5:55
803 78 Meaghan Smith, So* 22:26 6:02
804 130 Jessica Stern, Fr* 23:31 6:19
805 154 Katie Walsh, Sr* 24:12 6:30
799 161 Michelle Concannon, Sr* 24:21 6:33
801 178 Laura Petrik, Fr* 24:59 6:43
Time = 1:54:02 Places = 470

19. Lehigh
847 62 Alexis Weiner, Fr* 22:08 5:57
844 107 Katie McClernand, Jr* 22:59 6:11
846 113 Dana Stellar, So* 23:10 6:13
841 127 Jennifer Curran, So* 23:26 6:18
843 128 Andrea Mascaro, Fr* 23:27 6:18
842 144 Jen Filiberto, Jr* 23:59 6:27
Time = 1:55:08 Places = 537

20. Loyola (Md )
865 83 Maureen Wynne, Jr* 22:30 6:03
864 89 Lindsay Wilson, Fr* 22:39 6:05
863 111 Alexandra Salani, Jr* 23:09 6:13
857 124 Katie Cervo, Fr* 23:24 6:17
861 149 Lindsay Murphy, Fr* 24:02 6:28
858 160 Bethany Gentry, Sr* 24:19 6:32
862 176 Sara Ochs, Fr* 24:53 6:41
Time = 1:55:42 Places = 556

21. Maryland-Eastern Shor
885 48 Merrecia James, Jr* 21:50 5:52
887 92 Tamica Thomas, So* 22:44 6:06
889 135 Celia Whyte, Jr* 23:42 6:22
884 140 Betty Chumbe, Jr* 23:46 6:23
883 143 Janeth Chelangat, Jr* 23:52 6:25
888 187 Tiffany Webb, Fr* 29:10 7:50
Time = 1:55:53 Places = 558

22. Rider
960 97 Kelly Wojciehowski, Jr* 22:50 6:08
957 109 Kelsey Kohler, So* 23:05 6:12
955 122 Megan Crowe, Jr* 23:21 6:17
958 136 Lauren Lester, So* 23:43 6:22
953 162 Chelsea Callan, Fr* 24:21 6:33
959 181 Ashley O'Brien, Fr* 25:10 6:46
954 182 Dominique Carnevale, So* 25:20 6:48
Time = 1:57:18 Places = 626

23. St. Francis (Pa )
985 71 Shannon Kovack, Sr* 22:18 6:00
984 106 Anna Hoffman, So* 22:59 6:10
986 137 Sarah Rutledge, Jr* 23:44 6:23
987 166 Allyson Sheehan, So* 24:25 6:34
988 179 Danielle Williams, Fr* 25:02 6:44
Time = 1:58:25 Places = 659

24. Seton Hall
976 54 Kerry Cahill, Sr* 21:58 5:54
978 117 Alexandra Hehn, Fr* 23:19 6:16
980 146 Chavanne Hubbard, Jr* 24:00 6:27
983 171 Madison Wrest, Fr* 24:36 6:37
979 174 Jackie Hobbs, Jr* 24:47 6:40
975 180 Clare Byrne, So* 25:05 6:44
Time = 1:58:38 Places = 662

25. Lafayette
833 82 Rose Kennedy, So* 22:30 6:03
836 132 Kerry Taylor, So* 23:34 6:20
834 134 Kaela Mahon, Jr* 23:38 6:21
835 156 Frances Morro, Sr* 24:17 6:31
838 167 Christine Wittich, So* 24:27 6:34
832 177 Tracey Kelley, Fr* 24:54 6:41
831 183 Lauren Holck, Fr* 25:25 6:50
Time = 1:58:24 Places = 671

26. Robert Morris
961 112 Sarah Antonaitis, Sr* 23:09 6:13
965 118 Emily Ingle, So* 23:19 6:16
968 147 Brittany Strite, Sr* 24:01 6:27
967 148 Duffell Jessica, Fr* 24:02 6:27
966 153 Mennetti Jera, Fr* 24:12 6:30
963 168 Michelle Crowe, So* 24:29 6:35
962 169 Nicole Carter, Sr* 24:33 6:36
Time = 1:58:40 Places = 678

27. Marshall
874 108 Darby Mullen, Fr* 23:04 6:12
867 131 Emily Bailey, Sr* 23:32 6:19
872 142 Hannah Henderson, Fr* 23:49 6:24
873 151 Ellen Kist, Fr* 24:09 6:29
869 159 Kathleen Clark, Fr* 24:19 6:32
870 170 Allison Cox, So* 24:35 6:36
875 172 Sarah Sturgill, Sr* 24:36 6:37
Time = 1:58:51 Places = 691

28. Longwood
850 103 Jacquelyne Chantry, So* 22:54 6:09
852 139 Katee Knupp, So* 23:45 6:23
849 157 Laura Bland, So* 24:17 6:32
848 164 Natalie Auble, Fr* 24:24 6:34
854 184 Melinda Lacklore, So* 25:51 6:57
851 185 Mandy Ford, Fr* 25:55 6:58
856 186 Paula Roberson, Fr* 26:44 7:11
Time = 2:01:10 Places = 747
Top

TEAM MILE 1 FINAL
ID# PLACE SCORE FINISHER TIME TIME PACE TEAM

808 1 1 Melissa Grelli, Jr* 5:23 19:50 5:20 Georgetown
944 2 2 Liz Costello, So* 5:22 19:58 5:22 Princeton
1027 3 3 Marie-Louise Asselin, So* 5:22 20:00 5:22 West Virginia
929 4 4 Bridget Franek, So* 5:23 20:13 5:26 Penn State
949 5 5 Christy Johnson, So* 5:22 20:18 5:27 Princeton
1030 6 6 Grandt Clara, So* 5:23 20:20 5:28 West Virginia
1028 7 7 Keri Bland, So* 5:22 20:21 5:28 West Virginia
814 8 8 Lise Ogrodnick, Jr* 5:24 20:25 5:29 Georgetown
812 9 9 Elizabeth Maloy, Sr* 5:23 20:28 5:30 Georgetown
971 10 10 Cheyenne Ogletree, Jr* 5:24 20:35 5:32 Rutgers
827 11 11 Rachel Papin, Sr* 5:23 20:36 5:32 La Salle
1022 12 12 Sheila Reid, Fr* 5:24 20:37 5:32 Villanova
1012 13 Alex Hyland, Sr* 5:24 20:38 5:33 Umbc
933 14 13 Leah Rosenfeld, Fr* 5:28 20:39 5:33 Penn State
945 15 14 Sarah Cummings, Fr* 5:26 20:42 5:34 Princeton
919 16 15 Stacy Kim, Sr* 5:25 20:44 5:34 Penn
876 17 16 Meghan Braffet, Sr* 5:24 20:47 5:35 Maryland
943 18 17 Megan Brandeland, Jr* 5:30 20:49 5:35 Princeton
952 19 18 Jolee Vanleuven, Jr* 5:34 20:49 5:36 Princeton
1024 20 19 Alison Smith, Fr* 5:27 20:53 5:37 Villanova
825 21 20 Carolyn Lipovsky, Sr* 5:25 20:53 5:37 La Salle
950 22 21 Caitlin McTague, Sr* 5:30 20:57 5:38 Princeton
934 23 22 Cheryl Spring, So* 5:28 20:58 5:38 Penn State
1019 24 23 Callie Hogan, Fr* 5:27 20:59 5:38 Villanova
947 25 24 Ashley Higginson, Fr* 5:26 21:02 5:39 Princeton
917 26 25 Leah Brogan, Jr* 5:25 21:04 5:40 Penn
926 27 26 Claire Berryman, Jr* 5:39 21:08 5:41 Penn State
809 28 27 Maggie Infeld, Jr* 5:29 21:10 5:41 Georgetown
932 29 28 Claire Percival, Jr* 5:28 21:14 5:42 Penn State
1020 30 29 Amanda Marino, Fr* 5:41 21:17 5:43 Villanova
1029 31 30 Kaylyn Christopher, Fr* 5:31 21:17 5:43 West Virginia
1031 32 31 Maria Dalzot, So* 5:37 21:19 5:44 West Virginia
1026 33 32 Akilah Vargas, Sr* 5:36 21:23 5:45 Villanova
795 34 33 Samantha Howard, Sr* 5:34 21:24 5:45 Duquesne
807 35 34 Lauren Gregory, So* 5:30 21:26 5:46 Georgetown
918 36 35 Claire Kim, Sr* 5:26 21:29 5:46 Penn
817 37 36 Renee Tomlin, So* 5:30 21:29 5:46 Georgetown
940 38 37 Amy Ruffolo, Sr* 5:38 21:31 5:47 Pittsburgh
781 39 38 Christina Antonopoulos, Jr* 5:34 21:34 5:48 Delaware
877 40 39 Erin Matyus, So* 5:41 21:37 5:49 Maryland
1018 41 40 Ellen Dougherty, Jr* 5:33 21:38 5:49 Villanova
898 42 41 Cailin Lynam, So* 5:45 21:40 5:49 Monmouth
769 43 Cathleen Ford, Sr* 5:37 21:43 5:50 American
922 44 42 Kinjal Parikh, Jr* 5:38 21:46 5:51 Penn
772 45 43 Erin Cranmer-Hart, Sr* 5:42 21:46 5:51 Bucknell
931 46 44 Meghan Noecker, Jr* 5:38 21:48 5:51 Penn State
993 47 45 Andrea Florida, Jr* 5:39 21:48 5:51 St. Joseph's (Pa )
942 48 46 Anna Yoney, Fr* 5:40 21:48 5:51 Pittsburgh
792 49 47 Emily Beahan, Jr* 5:39 21:50 5:52 Duquesne
885 50 48 Merrecia James, Jr* 5:29 21:50 5:52 Maryland-Eastern Shor
800 51 49 Audrey Noonan, Jr* 5:41 21:52 5:52 George Washington
813 52 50 Avril Ogrodnick, Jr* 5:30 21:53 5:53 Georgetown
908 53 51 Arwyn Becker, Sr* 5:40 21:55 5:53 Navy
899 54 52 Meredith Malloy, So* 5:46 21:56 5:54 Monmouth
970 55 53 Alison Caruana, Jr* 5:44 21:57 5:54 Rutgers
976 56 54 Kerry Cahill, Sr* 5:36 21:58 5:54 Seton Hall
780 57 55 Christy Totten, Sr* 5:42 21:59 5:54 Bucknell
1005 58 56 Britta Nelson, Sr* 5:37 22:00 5:55 Towson
779 59 57 Gillian Nordquist, Jr* 5:42 22:01 5:55 Bucknell
930 60 58 Sonja Hinish, Sr* 5:48 22:01 5:55 Penn State
802 61 59 Mae Polhemus, Sr* 5:41 22:03 5:55 George Washington
915 62 60 Erica Ziel, So* 5:40 22:04 5:56 Navy
881 63 61 Lindsay Ritchings, So* 5:43 22:07 5:57 Maryland
847 64 62 Alexis Weiner, Fr* 5:40 22:08 5:57 Lehigh
1036 65 63 Alison Spiker, Jr* 5:37 22:08 5:57 West Virginia
937 66 64 Ali Briggs, Sr* 5:44 22:09 5:57 Pittsburgh
789 67 65 Cassie White, Fr* 5:40 22:09 5:57 Delaware
910 68 66 Lexa Gass, So* 5:45 22:12 5:58 Navy
823 69 67 Adriana Boyle, Sr* 5:43 22:12 5:58 La Salle
921 70 68 Jamie Liberti, Sr* 5:46 22:15 5:59 Penn
972 71 69 Asha Singh, Fr* 5:54 22:15 5:59 Rutgers
824 72 70 Kristina Kubala, Fr* 5:46 22:16 5:59 La Salle
________________________________________
Pace: 6:00 | 7:00 | 8:00 | Top
________________________________________
985 73 71 Shannon Kovack, Sr* 5:48 22:18 6:00 St. Francis (Pa )
1007 74 72 Katie Ogden, Fr* 5:44 22:19 6:00 Towson
882 75 73 Angeli Sivaraman, Fr* 5:46 22:20 6:00 Maryland
794 76 74 Sara Cimino, So* 5:50 22:21 6:00 Duquesne
775 77 75 Alexa Griffiths, Fr* 5:47 22:22 6:01 Bucknell
911 78 76 Kyleigh Millhouse, Sr* 5:44 22:24 6:01 Navy
1004 79 77 Michelle Donadio, So* 5:42 22:25 6:01 Towson
803 80 78 Meaghan Smith, So* 5:45 22:26 6:02 George Washington
909 81 79 Maureen Dooley, Jr* 5:42 22:26 6:02 Navy
829 82 80 Christa Plummer, Sr* 5:34 22:27 6:02 La Salle
1016 83 Suzie Richards, Jr* 5:45 22:28 6:02 Umbc
913 84 81 Amy Watson, So* 5:43 22:29 6:03 Navy
833 85 82 Rose Kennedy, So* 5:46 22:30 6:03 Lafayette
865 86 83 Maureen Wynne, Jr* 5:50 22:30 6:03 Loyola (Md )
778 87 84 Sarah Moniz, Fr* 5:53 22:30 6:03 Bucknell
785 88 85 Colleen O'Brien, Sr* 5:47 22:31 6:03 Delaware
878 89 86 Kylynn McKinley, Jr* 5:45 22:33 6:04 Maryland
989 90 87 Aimee Chegwidden, Fr* 5:50 22:34 6:04 St. Joseph's (Pa )
828 91 88 Mary Clare Parrott, Jr* 5:50 22:35 6:04 La Salle
770 92 Kate Lilley, Sr* 5:42 22:37 6:05 American
864 93 89 Lindsay Wilson, Fr* 5:49 22:39 6:05 Loyola (Md )
880 94 90 Kristin Reed, So* 5:46 22:42 6:06 Maryland
782 95 91 Yianna Antonopoulos, Jr* 5:44 22:42 6:06 Delaware
887 96 92 Tamica Thomas, So* 5:52 22:44 6:06 Maryland-Eastern Shor
1011 97 Suzanne Gabriel, So* 5:48 22:44 6:07 Umbc
914 98 93 Kat Wirtz, Jr* 5:59 22:45 6:07 Navy
1001 99 94 Kathleen Borleis, Sr* 5:47 22:47 6:07 Towson
793 100 95 Carly Brickett, So* 5:54 22:48 6:08 Duquesne
784 101 96 Karen Mandrachia, Fr* 5:47 22:49 6:08 Delaware
960 102 97 Kelly Wojciehowski, Jr* 5:54 22:50 6:08 Rider
791 103 98 Katelyn Baldys, Fr* 5:54 22:51 6:08 Duquesne
1033 104 99 Kate Harrison, Fr* 5:38 22:52 6:09 West Virginia
776 105 100 Offeibia Hanson-Hall, Sr* 5:53 22:52 6:09 Bucknell
773 106 101 Nicole Falcaro, Jr* 5:57 22:53 6:09 Bucknell
920 107 102 Charlotte Lawson, Jr* 5:46 22:53 6:09 Penn
850 108 103 Jacquelyne Chantry, So* 5:56 22:54 6:09 Longwood
826 109 104 Elisabeth Mayer, Sr* 5:40 22:58 6:10 La Salle
990 110 105 Annie Cushing, So* 5:51 22:58 6:10 St. Joseph's (Pa )
984 111 106 Anna Hoffman, So* 5:44 22:59 6:10 St. Francis (Pa )
844 112 107 Katie McClernand, Jr* 6:01 22:59 6:11 Lehigh
874 113 108 Darby Mullen, Fr* 5:56 23:04 6:12 Marshall
957 114 109 Kelsey Kohler, So* 5:53 23:05 6:12 Rider
905 115 Elizabeth Kessler, Jr* 5:50 23:06 6:13 Mount St. Mary's
997 116 110 Amy Rhein, Jr* 5:53 23:08 6:13 St. Joseph's (Pa )
863 117 111 Alexandra Salani, Jr* 6:05 23:09 6:13 Loyola (Md )
961 118 112 Sarah Antonaitis, Sr* 5:48 23:09 6:13 Robert Morris
846 119 113 Dana Stellar, So* 5:49 23:10 6:13 Lehigh
819 120 Ashley Hodges, Fr* 5:45 23:12 6:14 Howard
796 121 114 Kate Szymaszek, Jr* 6:00 23:13 6:14 Duquesne
797 122 115 Danielle Werley, Fr* 6:05 23:15 6:15 Duquesne
916 123 116 Anna Aagenes, So* 5:45 23:15 6:15 Penn
978 124 117 Alexandra Hehn, Fr* 5:55 23:19 6:16 Seton Hall
965 125 118 Emily Ingle, So* 5:53 23:19 6:16 Robert Morris
890 126 119 Christine Altland, Fr* 5:57 23:19 6:16 Monmouth
998 127 120 Juli Stensland, Jr* 5:56 23:20 6:16 St. Joseph's (Pa )
1008 128 121 Janelle Thompson, Sr* 5:57 23:20 6:16 Towson
955 129 122 Megan Crowe, Jr* 6:03 23:21 6:17 Rider
900 130 123 Tiffany McKenna, Fr* 6:05 23:22 6:17 Monmouth
857 131 124 Katie Cervo, Fr* 6:05 23:24 6:17 Loyola (Md )
935 132 125 Monica Bhattacharjee, Jr* 6:07 23:25 6:18 Pittsburgh
939 133 126 June Farley, Fr* 6:02 23:26 6:18 Pittsburgh
841 134 127 Jennifer Curran, So* 5:58 23:26 6:18 Lehigh
843 135 128 Andrea Mascaro, Fr* 5:54 23:27 6:18 Lehigh
903 136 129 Courtney Spratford, Fr* 6:05 23:30 6:19 Monmouth
804 137 130 Jessica Stern, Fr* 5:57 23:31 6:19 George Washington
867 138 131 Emily Bailey, Sr* 6:03 23:32 6:19 Marshall
836 139 132 Kerry Taylor, So* 6:11 23:34 6:20 Lafayette
788 140 133 Jennifer Watunya, Fr* 6:01 23:36 6:21 Delaware
834 141 134 Kaela Mahon, Jr* 6:05 23:38 6:21 Lafayette
889 142 135 Celia Whyte, Jr* 6:18 23:42 6:22 Maryland-Eastern Shor
958 143 136 Lauren Lester, So* 6:11 23:43 6:22 Rider
986 144 137 Sarah Rutledge, Jr* 6:09 23:44 6:23 St. Francis (Pa )
902 145 138 Rachel Ruggiano, So* 6:05 23:44 6:23 Monmouth
852 146 139 Katee Knupp, So* 6:20 23:45 6:23 Longwood
884 147 140 Betty Chumbe, Jr* 6:12 23:46 6:23 Maryland-Eastern Shor
994 148 141 Christina Morelli, Fr* 5:56 23:47 6:23 St. Joseph's (Pa )
872 149 142 Hannah Henderson, Fr* 6:03 23:49 6:24 Marshall
883 150 143 Janeth Chelangat, Jr* 6:17 23:52 6:25 Maryland-Eastern Shor
842 151 144 Jen Filiberto, Jr* 5:58 23:59 6:27 Lehigh
973 152 145 Karen Wilson, Jr* 6:23 23:59 6:27 Rutgers
980 153 146 Chavanne Hubbard, Jr* 6:20 24:00 6:27 Seton Hall
968 154 147 Brittany Strite, Sr* 6:14 24:01 6:27 Robert Morris
967 155 148 Duffell Jessica, Fr* 6:14 24:02 6:27 Robert Morris
861 156 149 Lindsay Murphy, Fr* 6:22 24:02 6:28 Loyola (Md )
892 157 150 Laura Embrey, So* 6:06 24:08 6:29 Monmouth
873 158 151 Ellen Kist, Fr* 6:03 24:09 6:29 Marshall
786 159 152 Liz Paul, Jr* 6:06 24:09 6:30 Delaware
966 160 153 Mennetti Jera, Fr* 6:16 24:12 6:30 Robert Morris
805 161 154 Katie Walsh, Sr* 6:10 24:12 6:30 George Washington
992 162 155 Laura Faller, Fr* 6:00 24:13 6:30 St. Joseph's (Pa )
835 163 156 Frances Morro, Sr* 6:05 24:17 6:31 Lafayette
849 164 157 Laura Bland, So* 6:31 24:17 6:32 Longwood
936 165 158 Nikki Bielick, Sr* 6:15 24:18 6:32 Pittsburgh
869 166 159 Kathleen Clark, Fr* 6:13 24:19 6:32 Marshall
858 167 160 Bethany Gentry, Sr* 6:17 24:19 6:32 Loyola (Md )
799 168 161 Michelle Concannon, Sr* 6:07 24:21 6:33 George Washington
953 169 162 Chelsea Callan, Fr* 6:06 24:21 6:33 Rider
941 170 163 Melissa Vignetti, Jr* 6:15 24:21 6:33 Pittsburgh
907 171 Maura Tipping, So* 6:12 24:22 6:33 Mount St. Mary's
848 172 164 Natalie Auble, Fr* 6:23 24:24 6:34 Longwood
1002 173 165 Brittni Bradley, Fr* 6:10 24:25 6:34 Towson
987 174 166 Allyson Sheehan, So* 6:14 24:25 6:34 St. Francis (Pa )
838 175 167 Christine Wittich, So* 6:13 24:27 6:34 Lafayette
963 176 168 Michelle Crowe, So* 6:17 24:29 6:35 Robert Morris
962 177 169 Nicole Carter, Sr* 6:19 24:33 6:36 Robert Morris
870 178 170 Allison Cox, So* 6:12 24:35 6:36 Marshall
983 179 171 Madison Wrest, Fr* 6:22 24:36 6:37 Seton Hall
875 180 172 Sarah Sturgill, Sr* 6:28 24:36 6:37 Marshall
1006 181 173 Devin O'Connell, So* 6:16 24:39 6:37 Towson
979 182 174 Jackie Hobbs, Jr* 6:23 24:47 6:40 Seton Hall
969 183 175 Brittnee Bynoe, So* 6:21 24:50 6:40 Rutgers
862 184 176 Sara Ochs, Fr* 6:17 24:53 6:41 Loyola (Md )
832 185 177 Tracey Kelley, Fr* 6:13 24:54 6:41 Lafayette
801 186 178 Laura Petrik, Fr* 6:11 24:59 6:43 George Washington
988 187 179 Danielle Williams, Fr* 6:23 25:02 6:44 St. Francis (Pa )
975 188 180 Clare Byrne, So* 6:23 25:05 6:44 Seton Hall
906 189 Jessica Rafeedie, Jr* 6:21 25:06 6:45 Mount St. Mary's
959 190 181 Ashley O'Brien, Fr* 6:20 25:10 6:46 Rider
954 191 182 Dominique Carnevale, So* 6:22 25:20 6:48 Rider
831 192 183 Lauren Holck, Fr* 6:20 25:25 6:50 Lafayette
854 193 184 Melinda Lacklore, So* 6:39 25:51 6:57 Longwood
851 194 185 Mandy Ford, Fr* 6:35 25:55 6:58 Longwood
________________________________________
Pace: 6:00 | 7:00 | 8:00 | Top
________________________________________
856 195 186 Paula Roberson, Fr* 6:39 26:44 7:11 Longwood
999 196 Mindy Wang, Fr* 6:45 28:59 7:47 St. Peter's
888 197 187 Tiffany Webb, Fr* 7:14 29:10 7:50 Maryland-Eastern Shor
________________________________________
Pace: 6:00 | 7:00 | 8:00 | Top
________________________________________
1000 198 Kelly Watson, Fr* 6:38 30:23 8:10 St. Peter's
"*" indicates females
57 finishers among Women 1 & Under
49 finishers among Women 2 - 2
51 finishers among Women 3 - 3
41 finishers among Women 4 & Up
0 male finishers
198 female finishers
198 total finishers